Weather in Batareynaya

Russia / Irkutsk Oblast     52°23′19″N   104°08′30″E
temp.,
°C
wind,
m/s
gust,
m/s
humid.,
%
clouds,
%
prec.,
mm/h
press.,
hPa
HPBL,
m
18 june, fri
fri1823:00+11wnw22720 0.0 101013
02:00+9w22800 0.0 101017
05:00+8w22860 0.0 101012
08:00+14wnw35701 0.0 1009293
11:00+20nw58470 0.0 10071727
14:00+23nw67401 0.0 10062385
17:00+23nw56450 0.0 10051682
20:00+19wnw33616 0.0 100545
19 june, sat
sat1923:00+13wsw11720 0.0 100611
02:00+11ssw11800 0.0 100610
05:00+10ese11830 0.0 100610
08:00+16ese12705 0.0 1006171
11:00+22se125143 0.0 1004540
14:00+25ne114095 0.0 10021017
17:00+24ne34474 0.0 1001592
20:00+21ene335764 0.0 100224
20 june, sun
sun2023:00+16ssw226111 0.0 100311
02:00+13se337074 0.0 100334
05:00+12se2364100 0.0 100439
08:00+16sse47635 0.0 1004300
11:00+22sse45495 0.0 1003762
14:00+26sse23420 0.0 1001931
17:00+27s12424 0.0 1000825
20:00+20sse49633 0.0 1002181
21 june, mon
mon2123:00+15sse23692 0.0 100434
02:00+12se227592 0.0 100525
05:00+12se117799 0.0 100517
08:00+16sse2470100 0.0 1005238
11:00+19s236799 0.1 1006546
14:00+23sse226234 0.4 1005853
17:00+24s115839 0.0 1004683
20:00+22wnw247392 0.0 100492
22 june, tue
tue2223:00+15wnw61186100 0.0 1008534
02:00+12wnw5990100 0.4 1009458
05:00+11wnw51095100 0.1 1009497
08:00+10wnw4896100 0.6 1009475
11:00+10w4695100 0.9 1009496
14:00+11w3592100 1.0 1008459
17:00+11wnw3698100 3.6 1008301
20:00+12w2494100 5.1 1007363